Temp
15 16 15 14 14 14 14 14 14 14 14 13 13 13 13 13 14 14 14 15 14 14 14 14 14 14 13 11 10 11 11 11 10 10 9 9 9 8 8 8 8 8 7 8 8 7 7 6 6 5 5 5 5 4 4 4 4 4 4 3 3 3 3 3 3 3 3 3 3 3 3 3 3 3 3 3 3 3 2 2 2 2 2 2 2 2
15 15 14 13 14 14 14 14 13 14 14 13 13 13 14 13 13 14 14 14 14 14 13 13 12 13 14 12 10 10 10 10 10 10 9 9 8 8 8 8 8 8 7 7 7 6 6 6 5 5 5 4 4 4 4 4 4 3 3 3 3 2 2 2 2 2 2 3 2 2 2 2 2 2 2 2 2 2 2 2 2 2 2 2 2 2
15 15 14 14 14 14 14 14 13 13 13 13 13 13 14 13 13 13 14 14 14 13 13 13 12 12 13 12 10 10 10 10 9 9 9 8 8 8 8 8 8 7 7 6 5 5 5 5 5 4 4 4 4 4 4 3 3 3 3 2 2 2 2 2 2 2 2 2 2 2 2 2 1 1 1 1 1 2 2 2 2 2 2 2 2 2
15 15 15 14 14 14 14 14 14 14 14 13 13 14 13 13 12 12 13 13 12 12 12 12 11 11 12 11 10 10 10 9 9 9 9 8 8 8 8 8 7 6 6 5 5 4 4 4 4 4 4 4 4 3 3 3 3 2 2 2 2 1 1 1 1 1 1 1 1 1 1 1 1 1 1 1 1 1 1 1 1 1 1 2 2 2
15 15 15 15 15 14 14 14 14 14 14 13 13 13 13 13 12 12 12 11 11 12 12 12 12 12 12 10 9 9 9 8 8 8 8 8 8 8 8 7 6 6 5 5 4 4 4 4 4 3 4 3 3 3 3 3 2 2 2 2 1 1 1 1 0 0 1 1 1 1 1 1 1 1 1 1 1 1 1 1 1 1 1 1 1 1
15 15 15 15 15 15 15 15 13 13 13 13 13 13 13 13 12 11 11 10 11 12 13 12 12 12 12 11 10 8 8 8 8 8 8 8 8 8 7 6 6 6 5 4 4 4 3 3 3 3 3 3 3 3 3 2 2 2 2 1 1 1 0 0 -0 -0 -0 -0 -0 0 0 0 0 0 0 0 0 0 1 1 1 1 1 1 1 1
15 15 15 15 15 15 15 14 13 13 13 13 14 14 13 13 12 12 11 10 11 12 13 12 11 10 12 13 11 8 7 7 8 8 8 8 7 7 7 6 6 5 4 4 3 3 3 3 3 3 3 3 3 3 2 2 2 2 1 1 1 0 0 -0 -0 -0 -0 -1 -0 -1 -1 -1 -1 -1 -1 -0 -0 -0 0 0 0 0 0 1 1 1
15 15 15 15 15 15 14 14 13 13 12 13 15 14 13 13 12 12 10 9 10 11 12 12 11 10 11 12 10 7 7 7 7 8 8 7 7 7 6 6 5 5 4 4 4 3 3 3 3 2 3 3 3 2 2 1 1 1 1 1 0 0 -0 -0 -0 -1 -1 -1 -1 -1 -1 -1 -1 -1 -1 -1 -1 -1 -1 -0 -0 -0 0 0 0 1
14 14 15 14 14 14 14 14 13 12 12 14 14 13 12 12 12 11 10 9 10 10 11 12 12 11 11 11 8 7 8 7 7 8 7 7 7 7 6 5 5 4 4 4 4 3 2 2 2 2 2 2 2 2 1 1 1 1 1 0 0 0 -0 -0 -1 -1 -1 -2 -2 -2 -2 -2 -2 -2 -2 -2 -2 -1 -1 -1 -1 -0 -0 -0 0 0
13 13 13 13 14 14 14 14 13 12 13 13 13 12 12 12 11 10 10 10 10 10 11 12 11 10 10 10 9 8 9 8 7 7 7 7 7 7 6 5 5 5 5 4 2 2 2 2 2 2 2 2 2 2 1 1 1 1 0 0 -0 -0 -1 -1 -1 -1 -2 -2 -2 -3 -3 -3 -3 -3 -3 -3 -3 -2 -2 -2 -1 -1 -1 -0 -0 -0
12 11 11 12 14 13 13 13 12 12 13 13 12 12 12 11 11 11 10 11 10 11 11 11 10 9 9 10 9 8 9 8 8 7 7 7 7 6 6 5 5 4 4 3 2 2 2 2 2 2 2 2 2 1 1 1 0 0 0 -0 -1 -1 -1 -1 -2 -2 -2 -2 -3 -3 -3 -4 -4 -4 -4 -4 -3 -3 -3 -3 -3 -2 -2 -1 -0 -0
13 13 12 13 13 12 12 12 13 12 12 12 12 11 11 11 11 11 11 11 10 11 11 10 10 10 9 9 9 8 8 7 8 8 7 7 6 6 5 5 4 3 3 2 2 2 1 1 2 1 1 1 1 1 0 0 -0 -0 -0 -1 -1 -1 -1 -2 -2 -2 -2 -3 -3 -4 -4 -4 -4 -4 -4 -4 -4 -3 -3 -3 -3 -3 -2 -2 -1 -1
14 14 13 13 12 12 12 13 13 13 13 13 12 11 11 10 10 10 10 10 10 11 11 10 10 9 9 10 10 8 7 7 7 7 7 6 6 5 4 4 3 3 3 2 2 1 1 1 1 1 1 1 1 0 -0 -0 -1 -1 -1 -1 -2 -2 -2 -2 -2 -2 -3 -3 -4 -4 -4 -5 -5 -5 -5 -5 -5 -4 -3 -3 -3 -3 -3 -3 -2 -2
14 13 12 13 13 12 12 13 13 13 13 12 12 11 11 9 8 8 8 9 9 10 10 10 9 9 9 10 9 9 8 7 7 7 7 6 5 4 4 3 3 3 2 2 2 1 1 1 0 0 0 0 0 -0 -1 -1 -1 -1 -2 -2 -2 -2 -2 -2 -3 -3 -3 -4 -5 -5 -5 -5 -6 -6 -6 -5 -5 -5 -4 -4 -3 -3 -3 -3 -3 -3
13 14 13 14 14 13 12 12 12 12 11 11 12 11 11 10 9 7 8 9 9 9 9 9 9 9 9 10 9 9 8 7 6 7 6 6 5 4 3 3 3 2 2 2 1 1 0 0 0 0 0 -0 -0 -1 -1 -1 -2 -2 -2 -2 -2 -3 -3 -3 -3 -3 -4 -5 -5 -6 -6 -6 -6 -6 -6 -6 -5 -5 -4 -4 -4 -3 -3 -3 -3 -3
12 13 14 13 12 12 12 11 11 11 11 11 11 11 11 11 10 8 8 8 8 7 7 7 9 9 10 10 9 9 8 7 6 6 5 5 4 4 3 2 2 2 2 1 1 0 0 0 -0 -0 -0 -0 -1 -1 -2 -2 -2 -2 -3 -3 -3 -3 -3 -4 -4 -4 -5 -5 -6 -6 -7 -7 -7 -6 -6 -6 -5 -5 -5 -5 -4 -4 -3 -3 -3 -3
12 13 13 12 12 12 11 10 10 11 12 12 11 11 11 10 9 8 7 7 7 6 6 8 9 9 9 9 9 8 7 6 6 5 5 4 4 3 2 2 2 1 1 1 0 0 -0 -0 -0 -1 -1 -1 -1 -2 -2 -2 -3 -3 -3 -3 -3 -4 -4 -4 -4 -5 -5 -6 -7 -7 -7 -7 -7 -7 -6 -6 -6 -6 -6 -6 -5 -5 -4 -4 -3 -3
11 11 12 12 13 12 10 10 11 10 11 11 11 11 10 9 9 8 7 7 6 5 6 8 8 7 7 7 8 7 6 5 5 5 4 4 3 2 2 2 1 1 1 0 0 -0 -1 -1 -1 -1 -1 -1 -2 -2 -3 -3 -3 -3 -3 -4 -4 -4 -4 -5 -5 -5 -6 -7 -7 -7 -8 -7 -7 -7 -7 -6 -7 -7 -7 -6 -6 -5 -5 -5 -4 -4
10 10 11 12 13 12 9 10 11 10 10 10 10 10 10 9 8 7 6 6 5 5 6 7 7 6 7 7 7 6 5 5 4 4 4 3 2 2 2 1 1 1 0 -0 -0 -1 -1 -1 -1 -1 -2 -2 -2 -3 -3 -3 -3 -4 -4 -4 -4 -5 -5 -5 -5 -6 -7 -7 -8 -8 -8 -8 -7 -7 -7 -7 -7 -7 -7 -7 -6 -6 -6 -5 -5 -4
9 10 11 12 12 11 10 11 11 11 10 10 10 9 9 9 8 7 7 6 5 5 5 5 6 6 7 7 6 5 5 4 4 4 3 2 1 1 1 1 0 0 -0 -1 -1 -1 -1 -1 -1 -2 -2 -3 -3 -3 -3 -4 -4 -4 -5 -5 -5 -5 -5 -6 -6 -6 -7 -8 -8 -8 -8 -8 -8 -8 -8 -8 -8 -8 -8 -7 -7 -6 -6 -6 -5 -5
10 10 10 11 11 11 11 11 10 11 10 10 9 9 8 8 8 7 6 6 5 5 4 4 5 6 7 7 6 5 5 5 4 3 2 1 1 1 1 0 -0 -1 -1 -1 -1 -1 -2 -2 -2 -3 -3 -3 -3 -4 -4 -4 -5 -5 -5 -5 -5 -6 -6 -6 -7 -7 -8 -8 -8 -8 -8 -8 -8 -8 -9 -8 -8 -8 -8 -7 -7 -7 -6 -6 -6 -6
9 9 9 9 9 10 11 10 8 9 9 10 9 9 9 8 7 6 6 5 5 5 4 4 4 5 7 7 6 5 5 4 4 2 1 1 1 0 0 -0 -1 -1 -1 -1 -2 -2 -2 -3 -3 -3 -3 -4 -4 -4 -4 -5 -5 -5 -5 -6 -6 -6 -7 -7 -7 -8 -8 -9 -9 -9 -8 -9 -9 -9 -9 -9 -9 -8 -8 -8 -7 -7 -7 -6 -6 -6
8 8 8 8 8 10 10 8 7 7 8 9 9 8 8 7 7 6 5 5 4 4 5 4 3 5 6 7 6 6 5 4 3 1 1 1 0 -0 -0 -1 -1 -1 -2 -2 -2 -2 -3 -3 -3 -4 -4 -4 -4 -5 -5 -5 -5 -6 -6 -6 -7 -7 -7 -8 -8 -9 -9 -9 -9 -9 -9 -9 -9 -9 -9 -9 -9 -8 -8 -8 -7 -7 -7 -7 -7 -6
7 8 8 8 8 9 9 8 7 7 8 9 9 8 8 7 7 7 5 4 3 3 4 3 3 5 7 6 6 5 5 4 2 1 0 0 -0 -0 -1 -1 -1 -2 -2 -2 -3 -3 -3 -3 -4 -4 -4 -4 -5 -5 -5 -6 -6 -6 -6 -7 -7 -7 -8 -8 -8 -9 -9 -9 -9 -9 -9 -9 -10 -10 -9 -9 -9 -9 -8 -8 -8 -7 -7 -7 -7 -6
8 9 9 8 8 9 9 9 9 8 8 9 9 7 7 7 6 6 5 3 2 3 3 2 3 6 7 6 5 5 4 3 1 1 0 -0 -1 -1 -1 -1 -2 -2 -2 -3 -3 -3 -4 -4 -4 -4 -4 -5 -5 -5 -6 -6 -6 -7 -7 -7 -8 -8 -8 -9 -9 -9 -9 -10 -9 -10 -10 -10 -10 -10 -10 -9 -9 -9 -9 -8 -8 -8 -8 -8 -7 -7
8 9 9 8 8 8 8 9 9 8 8 8 8 7 6 6 5 5 5 3 3 4 3 3 3 5 6 5 4 4 3 1 0 0 0 -0 -1 -1 -2 -2 -2 -2 -3 -3 -4 -4 -4 -4 -4 -5 -5 -5 -6 -6 -6 -6 -7 -7 -7 -8 -8 -9 -9 -9 -9 -10 -10 -10 -10 -10 -10 -10 -10 -10 -10 -10 -10 -9 -9 -9 -8 -9 -9 -8 -7 -7
7 8 8 9 9 8 8 9 9 8 7 7 7 6 6 5 4 4 4 3 4 4 3 4 4 4 4 4 3 3 1 -0 -0 -0 -1 -1 -1 -2 -2 -2 -2 -3 -3 -4 -4 -4 -4 -4 -5 -5 -5 -5 -6 -6 -6 -7 -7 -7 -8 -8 -9 -9 -9 -10 -10 -10 -10 -10 -10 -10 -10 -10 -10 -10 -10 -10 -10 -10 -9 -9 -9 -9 -9 -8 -8 -8
7 8 8 9 8 8 8 8 8 7 6 6 6 6 6 5 3 3 3 4 5 3 3 5 4 2 2 2 2 2 -0 -1 -1 -1 -1 -1 -2 -2 -2 -2 -3 -3 -4 -4 -4 -4 -5 -5 -5 -5 -5 -6 -6 -7 -7 -7 -8 -8 -8 -9 -9 -9 -10 -10 -10 -11 -11 -11 -11 -11 -11 -11 -11 -11 -11 -11 -10 -10 -10 -9 -9 -9 -9 -9 -8 -8
7 7 7 7 7 8 8 7 7 6 6 6 6 6 6 5 3 3 3 4 4 2 3 4 3 1 1 2 2 1 -1 -1 -1 -1 -1 -1 -2 -2 -2 -3 -3 -4 -4 -4 -4 -5 -5 -5 -5 -6 -6 -6 -7 -7 -7 -8 -8 -8 -9 -9 -10 -10 -10 -11 -11 -11 -11 -11 -11 -11 -11 -11 -11 -11 -11 -11 -10 -10 -10 -10 -10 -10 -10 -9 -9 -9
6 7 7 6 6 7 7 7 7 6 6 7 7 7 6 5 4 4 3 3 3 2 2 2 1 1 2 2 1 0 -0 -1 -1 -1 -1 -2 -2 -2 -3 -3 -4 -4 -4 -4 -5 -5 -5 -5 -6 -6 -6 -7 -7 -8 -8 -8 -8 -9 -9 -10 -10 -10 -11 -11 -11 -11 -11 -11 -11 -11 -11 -11 -11 -11 -11 -11 -11 -11 -10 -10 -10 -10 -10 -10 -9 -9
6 7 6 6 6 6 7 7 7 7 6 6 6 6 6 5 4 3 3 3 2 2 2 1 0 1 2 2 0 -1 -1 -1 -1 -1 -2 -2 -2 -3 -3 -4 -4 -4 -4 -5 -5 -5 -5 -6 -6 -6 -7 -7 -7 -8 -8 -8 -9 -9 -10 -10 -10 -11 -11 -12 -12 -12 -12 -12 -12 -12 -12 -12 -11 -11 -11 -11 -11 -11 -11 -11 -11 -10 -10 -10 -9 -9
6 6 6 6 5 6 7 7 7 6 6 5 6 6 5 4 4 3 3 3 2 1 1 0 0 1 1 1 -1 -1 -1 -1 -2 -2 -2 -2 -3 -3 -3 -4 -4 -4 -5 -5 -5 -5 -5 -6 -6 -6 -7 -7 -8 -8 -8 -9 -9 -10 -10 -11 -11 -11 -12 -12 -12 -12 -12 -12 -12 -12 -12 -12 -12 -12 -11 -11 -11 -11 -11 -11 -11 -11 -10 -10 -10 -9
5 5 5 5 5 6 7 6 6 5 6 6 6 5 4 4 3 3 3 2 2 1 0 0 0 1 0 -1 -2 -2 -2 -2 -2 -2 -3 -3 -3 -3 -4 -4 -4 -4 -5 -5 -5 -6 -6 -6 -6 -7 -7 -8 -8 -8 -9 -9 -10 -10 -11 -11 -11 -12 -12 -12 -12 -13 -13 -13 -12 -12 -12 -12 -12 -12 -12 -12 -12 -12 -12 -11 -11 -11 -11 -10 -10 -10
4 4 5 5 5 6 6 6 5 6 6 6 5 3 3 3 2 2 2 1 2 2 1 1 1 -0 -1 -1 -2 -2 -2 -2 -2 -2 -3 -3 -3 -3 -4 -4 -4 -5 -5 -5 -5 -6 -6 -6 -6 -7 -8 -8 -8 -9 -9 -10 -10 -11 -11 -12 -12 -12 -13 -13 -13 -13 -13 -13 -13 -13 -13 -13 -12 -12 -12 -12 -12 -12 -12 -12 -12 -11 -11 -11 -10 -10
5 4 5 5 5 5 5 5 5 5 6 5 3 2 3 3 2 1 1 1 2 2 1 -0 -1 -1 -1 -1 -2 -2 -2 -2 -2 -2 -2 -3 -3 -4 -4 -5 -5 -5 -5 -5 -6 -6 -6 -6 -7 -7 -8 -8 -9 -9 -10 -10 -11 -11 -12 -12 -12 -13 -13 -13 -13 -13 -13 -13 -13 -13 -13 -13 -13 -13 -13 -13 -12 -12 -12 -12 -12 -12 -11 -11 -11 -10
5 4 4 4 5 5 5 5 4 5 7 5 2 3 3 2 2 1 0 2 2 1 -1 -1 -1 -1 -1 -1 -2 -2 -2 -2 -3 -3 -2 -3 -3 -4 -5 -5 -5 -5 -5 -6 -6 -6 -6 -7 -7 -8 -8 -9 -9 -10 -10 -11 -12 -12 -12 -12 -13 -13 -13 -13 -14 -13 -13 -13 -13 -14 -14 -14 -14 -13 -13 -13 -13 -13 -13 -13 -12 -12 -12 -11 -11 -11
5 5 5 5 5 6 5 4 4 5 6 4 3 3 2 2 2 1 -0 1 1 0 -1 -1 -1 -1 -2 -2 -2 -2 -3 -3 -4 -3 -3 -3 -4 -4 -4 -5 -5 -5 -5 -6 -6 -6 -7 -7 -7 -8 -8 -9 -9 -10 -11 -12 -12 -12 -13 -13 -13 -14 -14 -14 -14 -14 -14 -14 -14 -14 -14 -14 -14 -14 -13 -13 -13 -13 -13 -13 -13 -12 -12 -12 -11 -11
4 4 5 4 5 5 4 4 4 4 5 4 3 3 3 2 3 1 -0 -0 0 -0 -0 -1 -2 -2 -2 -2 -3 -3 -3 -4 -5 -4 -3 -4 -4 -4 -4 -4 -5 -5 -6 -6 -6 -7 -7 -7 -8 -8 -9 -10 -10 -11 -12 -12 -13 -13 -13 -13 -14 -14 -14 -14 -14 -14 -14 -14 -14 -15 -15 -15 -14 -14 -14 -14 -14 -14 -14 -13 -13 -13 -12 -12 -12 -11
4 4 4 4 4 4 4 3 3 3 5 5 3 3 3 2 2 1 -1 -1 -0 -0 -1 -1 -2 -2 -2 -3 -3 -3 -4 -5 -5 -4 -4 -4 -4 -4 -5 -5 -5 -6 -6 -6 -7 -7 -7 -8 -8 -9 -10 -10 -11 -12 -12 -13 -13 -13 -14 -14 -14 -14 -14 -14 -14 -14 -14 -15 -15 -15 -15 -15 -15 -15 -15 -15 -15 -14 -14 -14 -13 -13 -13 -12 -12 -11
5 4 4 4 4 4 4 3 3 3 4 4 4 4 3 2 1 0 -1 -1 0 -0 -1 -1 -2 -3 -3 -3 -4 -4 -5 -6 -5 -5 -4 -4 -4 -5 -5 -5 -6 -6 -6 -6 -7 -7 -8 -8 -9 -10 -10 -11 -12 -12 -13 -13 -14 -14 -14 -15 -15 -15 -15 -15 -15 -15 -15 -16 -16 -16 -16 -16 -15 -15 -15 -15 -15 -15 -14 -14 -14 -13 -13 -12 -12 -11
6 5 4 4 5 4 3 3 3 4 4 4 4 4 3 2 1 -1 -1 -0 0 -0 -1 -1 -2 -2 -3 -3 -4 -4 -4 -4 -4 -5 -4 -4 -5 -5 -5 -6 -6 -6 -6 -7 -7 -8 -8 -9 -10 -10 -11 -12 -12 -13 -13 -14 -14 -14 -15 -15 -15 -15 -15 -15 -15 -16 -16 -17 -17 -16 -16 -16 -16 -16 -16 -15 -15 -15 -15 -14 -14 -13 -13 -12 -12 -11
6 5 4 4 4 4 4 3 3 4 4 3 3 3 2 1 -0 -1 -0 1 0 -1 -1 -1 -2 -2 -3 -4 -4 -4 -4 -4 -4 -4 -5 -5 -5 -6 -6 -6 -6 -6 -7 -7 -7 -8 -9 -10 -10 -11 -12 -13 -13 -13 -14 -14 -14 -15 -15 -15 -15 -15 -16 -16 -16 -17 -17 -17 -17 -17 -17 -16 -16 -16 -16 -16 -15 -15 -15 -14 -14 -13 -12 -12 -11 -11
5 5 5 5 4 4 4 3 2 3 4 3 2 3 2 0 0 0 1 0 -0 -1 -1 -2 -2 -3 -3 -4 -4 -4 -4 -4 -4 -5 -5 -5 -6 -6 -6 -6 -6 -7 -7 -7 -8 -9 -9 -10 -11 -12 -13 -13 -14 -14 -14 -14 -15 -15 -16 -16 -16 -16 -16 -16 -17 -17 -17 -17 -17 -17 -17 -17 -17 -17 -16 -16 -16 -15 -15 -14 -13 -13 -12 -12 -11 -10
5 4 5 4 4 3 3 3 3 5 5 3 2 2 2 2 2 1 -0 -1 -1 -1 -1 -2 -2 -3 -3 -4 -4 -4 -4 -5 -5 -5 -6 -6 -6 -6 -6 -6 -7 -7 -7 -8 -8 -9 -10 -11 -11 -12 -13 -14 -14 -14 -15 -15 -15 -16 -16 -16 -16 -17 -16 -17 -17 -18 -18 -18 -17 -17 -17 -17 -17 -17 -17 -16 -16 -15 -14 -14 -13 -13 -12 -11 -11 -10
5 5 5 4 4 4 3 4 5 5 4 3 2 3 2 2 1 0 -1 -1 -1 -1 -2 -2 -3 -3 -3 -4 -4 -4 -5 -5 -5 -5 -6 -6 -6 -6 -7 -7 -7 -8 -8 -8 -9 -10 -11 -11 -12 -13 -13 -14 -14 -15 -15 -15 -16 -16 -16 -17 -17 -17 -17 -17 -18 -18 -18 -18 -18 -18 -18 -18 -17 -17 -16 -16 -15 -15 -14 -14 -13 -13 -12 -11 -11 -10
4 4 4 4 4 4 4 5 5 4 3 3 3 3 2 1 1 -0 -1 -1 -1 -1 -2 -2 -3 -3 -3 -4 -4 -5 -5 -5 -6 -6 -6 -6 -6 -7 -7 -7 -8 -8 -8 -9 -9 -10 -11 -12 -13 -13 -14 -14 -15 -15 -15 -16 -16 -16 -17 -17 -17 -17 -17 -18 -18 -18 -18 -18 -18 -18 -18 -18 -18 -17 -16 -16 -15 -15 -15 -14 -13 -13 -12 -11 -11 -10
4 3 4 4 4 3 3 4 4 3 2 2 2 2 1 0 -0 -1 -1 -1 -1 -2 -2 -2 -3 -3 -3 -4 -4 -5 -5 -5 -6 -6 -6 -7 -7 -7 -7 -8 -8 -8 -9 -10 -10 -11 -12 -12 -13 -14 -14 -15 -15 -16 -16 -17 -17 -17 -17 -17 -17 -18 -18 -19 -18 -18 -18 -19 -19 -19 -18 -18 -17 -17 -16 -16 -16 -15 -15 -14 -13 -13 -12 -11 -10 -10
4 4 4 3 3 2 3 4 3 2 2 2 2 1 1 -0 -1 -1 -1 -1 -2 -2 -2 -2 -3 -3 -4 -4 -4 -5 -5 -6 -6 -6 -7 -7 -7 -8 -8 -8 -8 -9 -10 -10 -11 -12 -12 -13 -14 -14 -15 -15 -16 -16 -17 -17 -17 -18 -18 -18 -18 -18 -19 -19 -19 -19 -19 -19 -19 -19 -18 -18 -17 -17 -17 -16 -16 -15 -15 -14 -13 -13 -12 -11 -10 -10
4 4 3 2 2 2 3 3 2 1 1 1 1 1 -0 -1 -1 -2 -2 -2 -2 -2 -2 -3 -3 -3 -4 -4 -4 -5 -6 -6 -6 -7 -7 -8 -8 -8 -8 -9 -9 -10 -11 -11 -12 -13 -13 -14 -14 -15 -16 -16 -17 -17 -17 -17 -18 -18 -18 -18 -19 -19 -19 -19 -19 -19 -19 -19 -19 -19 -18 -18 -17 -17 -17 -17 -16 -16 -15 -14 -13 -13 -12 -10 -9 -8
3 3 3 1 1 1 1 2 1 -0 -1 0 0 -0 -1 -1 -2 -2 -2 -2 -2 -3 -3 -3 -3 -3 -4 -4 -5 -5 -6 -6 -6 -7 -8 -8 -8 -9 -9 -9 -10 -11 -12 -13 -13 -13 -14 -14 -15 -16 -16 -17 -17 -17 -17 -18 -18 -18 -18 -19 -19 -20 -20 -19 -19 -19 -20 -19 -19 -19 -18 -18 -18 -18 -17 -17 -16 -16 -15 -14 -13 -12 -11 -10 -8 -7
3 2 2 1 0 0 1 1 1 -1 -1 -0 -0 -1 -1 -2 -2 -2 -3 -3 -3 -3 -3 -4 -4 -5 -5 -5 -5 -6 -7 -7 -7 -8 -8 -9 -9 -9 -10 -10 -11 -12 -13 -14 -14 -14 -15 -15 -16 -17 -17 -17 -17 -18 -18 -18 -18 -18 -19 -20 -20 -20 -20 -20 -20 -20 -20 -20 -19 -19 -18 -18 -18 -18 -18 -17 -17 -16 -15 -14 -13 -11 -10 -10 -9 -8
Height
816 822 831 834 837 838 837 837 836 835 837 837 838 838 836 835 830 822 819 815 814 815 809 808 811 808 809 814 815 814 814 817 820 821 823 826 828 829 831 831 832 832 832 832 833 833 834 834 833 833 832 831 830 829 828 826 825 823 821 819 817 816 814 812 810 807 804 802 799 796 794 792 789 788 785 784 783 782 781 780 780 778 776 775 773 772
820 828 840 840 838 838 836 837 837 836 835 835 836 836 833 833 830 823 820 816 814 817 812 808 811 808 803 808 814 814 815 816 818 820 823 825 828 829 830 831 831 832 832 832 833 833 833 832 831 831 830 830 829 827 826 825 824 822 821 819 817 815 814 811 809 807 804 801 799 795 793 790 788 786 784 783 782 781 779 778 777 776 774 773 771 769
828 835 840 837 837 837 836 837 838 836 836 836 836 835 833 832 830 822 816 816 816 819 812 806 811 808 800 805 812 813 814 816 818 820 823 825 827 829 829 830 831 831 832 833 833 832 831 831 831 830 830 829 828 826 824 823 822 821 819 818 816 814 812 810 808 806 803 800 798 795 792 789 787 785 783 782 780 778 777 775 774 772 771 770 768 767
835 839 837 836 836 835 835 835 835 834 834 837 836 835 835 834 835 827 816 817 820 820 813 807 812 809 803 807 812 814 815 818 820 821 823 825 826 828 828 829 831 832 833 832 832 831 830 831 830 829 828 827 826 824 823 822 820 819 817 816 814 812 810 808 807 805 802 799 796 793 790 788 785 783 781 779 777 776 774 771 770 769 768 767 766 764
838 837 834 834 834 834 836 835 836 835 835 838 836 835 836 833 835 832 825 823 820 816 813 811 810 802 803 811 814 817 819 820 821 822 823 824 825 827 827 829 831 831 832 832 831 831 831 830 828 827 827 826 825 824 822 820 819 817 815 813 811 809 807 806 804 803 800 797 794 791 788 785 782 780 778 776 774 772 770 768 766 765 765 764 763 761
838 836 833 833 832 834 835 834 838 839 837 838 834 833 833 830 832 830 829 831 822 813 809 812 815 806 801 808 813 819 822 821 823 823 824 825 825 827 828 830 830 831 831 832 832 832 830 828 827 827 827 825 823 822 820 819 817 815 813 811 808 806 804 803 802 800 798 795 792 789 786 783 780 777 776 774 772 769 767 765 763 762 761 761 759 757
837 835 835 835 834 834 834 836 839 839 840 839 831 828 829 828 830 826 828 835 828 817 809 812 823 819 804 799 807 819 823 823 824 824 824 826 827 827 829 830 830 831 832 832 831 829 828 828 828 828 825 823 821 820 819 817 815 814 811 809 806 804 802 800 799 797 796 793 791 788 785 783 780 776 774 772 770 767 764 762 759 758 757 756 755 753
836 835 834 835 835 835 835 837 837 838 841 834 824 827 828 827 828 824 829 837 831 821 813 810 816 818 807 800 812 822 823 825 825 823 825 826 827 827 828 830 830 831 832 830 829 828 829 831 829 826 822 821 820 818 817 815 813 811 809 807 804 802 799 797 796 795 793 792 789 787 784 781 779 775 771 769 766 764 761 758 756 754 753 751 751 750
838 837 836 837 838 837 835 835 836 838 838 830 825 830 830 828 827 824 829 833 830 825 817 809 811 816 810 806 820 824 820 826 825 823 826 826 826 827 828 831 831 831 831 830 831 831 832 830 825 823 821 820 819 816 814 812 810 808 806 804 801 799 797 795 794 792 790 789 787 785 782 779 777 774 770 767 763 760 758 755 752 750 749 747 746 745
840 840 840 840 838 838 834 833 835 836 834 829 829 830 828 828 825 824 828 826 825 824 816 811 815 824 817 806 816 822 817 823 825 823 826 824 825 827 829 831 830 830 831 831 833 832 829 825 823 822 821 819 816 814 812 809 807 805 803 801 798 797 795 793 791 789 787 786 784 782 780 777 774 771 768 765 761 758 755 752 749 747 745 743 742 741
842 843 843 840 838 838 837 835 835 834 833 829 830 830 827 827 822 821 823 820 823 820 813 816 819 825 826 812 813 820 816 819 822 822 824 823 826 829 830 831 831 831 832 832 831 828 825 823 822 821 819 816 814 811 809 807 805 803 800 798 796 794 793 790 788 786 784 782 780 779 777 775 772 769 766 762 758 755 752 749 747 744 742 740 738 737
841 840 840 839 838 839 838 836 833 833 834 831 833 834 828 826 823 818 817 820 825 818 811 819 817 819 827 816 810 817 819 820 820 821 823 825 828 830 830 831 832 833 831 829 827 824 824 823 821 820 817 814 812 809 808 806 804 801 799 797 794 792 790 788 785 783 781 779 777 776 774 772 769 766 764 760 756 752 749 746 744 741 739 737 735 733
838 837 840 839 838 840 839 836 832 831 832 831 834 837 836 838 836 830 828 828 826 817 811 817 816 817 819 810 808 815 819 820 820 821 824 827 829 830 831 832 832 830 827 825 825 825 825 823 821 819 816 813 810 808 807 805 803 800 798 796 792 789 787 785 782 780 778 776 774 773 771 769 766 763 761 757 753 749 746 743 740 738 736 734 732 731
839 838 840 838 836 838 838 837 834 832 833 834 835 837 842 850 855 853 847 840 830 817 810 815 821 822 813 806 809 812 813 817 819 822 825 827 830 831 831 831 828 825 824 824 826 826 825 823 821 819 816 813 810 808 806 804 802 799 796 793 790 787 784 782 780 777 775 773 771 770 768 766 763 759 756 752 748 745 742 739 737 735 732 730 729 728
849 841 838 836 836 837 838 840 840 839 839 838 836 838 842 849 859 864 855 845 838 826 818 820 823 819 809 805 808 808 812 819 822 824 826 826 827 828 827 826 824 823 824 826 827 826 825 823 820 818 815 812 809 807 805 802 800 797 794 791 788 785 782 779 777 774 772 770 769 767 764 762 759 755 750 747 744 741 738 735 733 730 729 727 725 724
855 844 837 838 839 838 838 840 843 842 839 839 839 839 840 842 849 857 852 846 847 844 836 827 817 807 803 803 805 809 815 821 824 824 824 823 823 824 825 824 824 825 827 827 826 826 824 822 820 817 813 811 808 806 803 800 798 795 792 788 785 782 779 777 774 772 770 767 765 763 761 759 755 750 745 742 740 737 735 732 729 726 724 723 721 720
857 845 838 841 840 838 841 843 843 842 836 836 841 838 838 843 847 853 854 848 851 854 838 819 811 808 808 807 807 813 818 819 822 823 822 822 823 824 825 825 826 828 828 827 827 825 823 821 818 815 812 810 807 805 802 799 796 793 790 786 783 780 777 774 772 769 766 764 762 760 758 755 750 745 741 739 737 734 732 729 726 723 721 720 718 717
864 853 842 841 837 837 845 844 840 843 840 838 841 839 839 845 847 853 859 853 856 857 835 815 817 821 822 819 812 814 821 823 823 824 823 823 825 826 827 827 828 829 828 828 827 825 823 820 817 814 812 810 807 804 801 797 794 791 788 785 781 778 774 771 769 766 763 761 758 756 754 750 746 742 739 736 734 732 729 726 724 721 719 717 715 713
870 860 844 839 837 839 845 844 838 840 843 841 840 841 843 847 849 855 861 860 862 860 840 821 821 824 822 818 816 819 825 827 826 826 825 826 829 830 829 829 829 828 828 827 826 824 822 818 816 814 812 809 806 803 799 796 792 790 787 784 780 776 772 769 766 763 760 758 756 753 750 746 742 739 736 734 732 729 727 724 721 719 716 714 713 711
870 865 851 839 839 842 842 842 839 837 841 843 842 845 847 849 853 857 857 859 863 861 849 832 824 823 818 812 817 824 825 827 828 826 827 831 833 832 831 830 829 828 828 826 824 822 820 817 816 814 811 808 805 801 798 794 791 788 785 781 777 774 770 767 763 760 757 755 753 750 746 743 739 737 734 732 729 726 724 721 719 716 714 712 710 708
868 868 858 844 844 846 840 840 841 840 843 845 846 849 849 848 852 856 855 856 860 859 857 848 830 818 814 810 816 823 822 824 827 827 831 833 833 832 832 831 830 829 828 826 823 821 819 817 815 813 810 807 803 800 796 793 790 786 782 778 775 771 767 763 759 757 755 752 750 746 742 739 736 734 732 730 727 724 721 718 716 713 711 709 707 705
869 868 864 856 854 847 839 843 848 848 846 845 846 847 847 849 854 861 859 854 857 856 854 855 840 817 810 811 814 818 821 823 826 830 834 833 832 832 831 830 829 829 827 824 822 821 818 816 813 811 808 805 802 798 794 791 787 783 779 775 772 769 765 761 757 754 752 749 746 743 739 736 734 732 730 727 724 721 718 715 713 710 708 706 704 702
876 875 873 867 859 847 843 849 854 853 848 845 848 848 848 852 854 860 859 853 857 855 847 853 846 820 808 809 811 816 820 823 828 832 834 832 832 831 830 829 829 827 825 823 822 821 818 815 812 809 806 802 799 796 792 789 784 780 777 773 770 766 763 760 756 752 749 746 743 740 736 734 732 729 727 724 721 718 715 713 710 707 705 703 701 698
878 875 872 864 854 846 845 850 852 852 849 845 846 848 850 851 850 853 856 859 865 860 853 858 844 813 803 806 810 816 821 825 830 833 833 832 831 830 829 828 827 825 824 822 821 819 817 814 811 807 803 800 797 794 790 786 782 778 774 771 767 764 761 757 753 750 746 743 740 737 734 732 730 727 724 721 719 716 713 710 707 705 703 700 698 695
873 868 867 864 858 851 847 847 847 848 849 845 845 849 851 850 852 854 857 866 868 855 852 860 837 803 797 805 811 818 823 828 832 833 833 833 831 830 829 828 826 824 822 821 819 817 814 811 808 805 801 798 795 791 787 783 780 776 772 768 765 761 758 755 751 747 744 741 737 734 732 729 727 725 722 719 717 714 711 708 705 703 701 698 696 693
875 869 870 870 871 868 860 853 848 848 850 847 846 852 853 853 856 855 858 868 863 847 847 853 833 803 799 809 815 820 826 831 834 833 832 832 832 831 829 827 825 823 822 820 817 814 812 809 806 802 799 796 793 789 785 781 778 774 770 767 763 760 756 752 749 745 742 739 735 732 730 727 724 722 720 717 715 712 709 706 703 701 698 696 694 691
881 875 872 869 869 870 863 855 852 855 857 852 848 850 852 856 858 858 863 862 851 846 845 838 827 816 813 818 821 824 831 835 834 832 831 831 830 829 828 825 823 822 821 819 816 813 810 807 803 800 797 793 790 787 783 780 776 771 767 764 761 758 754 750 747 744 740 737 733 730 728 725 722 720 718 715 712 709 706 704 701 699 696 694 692 690
881 876 871 868 867 864 861 858 857 859 859 855 852 848 848 856 861 863 863 850 843 851 842 821 824 832 827 825 826 829 835 837 834 832 831 829 829 827 825 823 821 820 819 816 814 811 808 805 801 798 795 791 788 785 781 778 773 769 765 762 758 755 752 749 745 742 738 735 732 729 726 723 721 718 716 712 709 706 704 701 699 697 694 692 689 687
882 878 873 871 868 863 862 860 857 860 860 855 852 846 844 853 860 859 855 846 847 855 840 822 832 841 833 829 830 833 837 837 833 832 830 827 827 825 823 821 820 818 816 814 812 809 806 802 799 795 792 789 786 783 779 775 771 767 763 759 756 753 750 747 743 740 737 733 730 727 724 722 719 716 714 711 707 705 702 699 696 694 691 689 687 685
883 876 875 875 870 865 863 860 858 860 857 850 846 843 842 847 852 853 851 848 851 850 840 837 843 841 833 832 834 835 837 836 832 830 828 827 825 823 821 819 818 816 814 811 809 806 803 800 796 793 789 786 783 780 776 772 768 765 761 757 754 751 748 744 741 738 735 732 729 727 724 720 717 714 712 709 706 704 701 698 695 692 689 687 684 682
882 876 876 877 872 865 860 856 855 855 854 851 846 844 844 845 847 852 853 851 851 849 844 846 846 838 831 833 837 838 836 834 831 828 827 825 823 821 819 818 816 814 811 809 806 804 801 798 794 791 787 784 781 778 774 771 767 763 760 756 753 749 746 743 740 736 734 731 728 726 723 719 716 712 710 707 705 702 700 697 694 691 688 685 682 680
884 881 878 879 877 865 855 853 854 853 854 851 845 843 846 846 847 852 852 850 852 852 849 850 846 837 832 835 839 837 834 833 830 827 825 823 821 819 818 817 815 812 810 807 804 802 800 798 794 790 786 783 779 776 773 769 765 762 758 755 751 748 745 742 738 735 732 730 727 724 721 718 715 712 708 705 702 700 698 695 693 690 687 683 680 678
888 885 880 883 880 861 852 857 859 856 851 843 840 847 851 849 849 851 850 849 852 853 853 851 844 837 836 839 840 836 834 833 830 827 825 822 819 818 817 816 814 811 809 806 803 801 799 796 793 790 786 782 778 775 772 768 765 761 758 755 751 747 744 740 737 734 731 729 726 723 720 717 714 711 708 705 701 698 696 693 690 688 685 681 679 676
891 889 884 886 880 864 857 859 858 855 849 841 846 855 855 852 855 855 854 853 851 849 848 846 842 842 843 842 840 837 835 833 830 827 825 821 818 817 816 815 812 809 807 804 801 799 796 793 791 788 785 781 778 774 771 768 765 761 757 754 750 746 743 739 736 733 729 727 724 721 718 716 713 710 707 704 701 697 694 691 688 685 683 680 676 673
888 888 885 885 882 871 864 865 864 856 847 845 853 857 854 853 856 856 853 851 848 846 847 848 847 847 845 842 840 838 834 832 829 826 823 820 819 818 816 813 810 807 804 801 799 796 794 791 788 785 782 779 776 773 769 766 763 759 755 751 748 745 742 738 735 732 728 725 723 720 717 714 712 709 705 702 700 697 693 690 686 683 680 677 674 672
886 888 887 884 880 869 864 872 873 855 841 848 857 855 853 855 857 858 853 845 845 849 851 852 850 845 843 841 838 836 833 830 827 824 821 820 819 817 815 811 807 805 802 800 798 795 793 790 786 783 780 777 774 771 768 765 761 758 753 750 747 744 740 737 734 731 728 725 722 719 716 713 710 707 703 701 698 695 691 688 684 681 678 675 672 669
887 887 886 883 878 871 869 873 869 853 844 850 854 853 856 857 856 859 855 845 844 850 851 851 848 844 843 840 836 835 831 827 824 821 819 819 818 816 814 810 807 804 801 799 797 794 792 789 786 783 780 777 774 770 767 764 760 757 753 749 746 743 739 736 733 730 727 724 721 718 715 712 708 704 701 699 696 693 689 686 682 679 676 673 669 666
887 887 887 887 881 877 877 877 871 861 851 850 854 854 856 855 852 856 857 850 847 849 849 849 847 844 841 839 836 833 830 827 824 819 817 818 816 814 811 809 806 803 800 797 794 792 790 787 784 782 780 776 773 770 767 763 759 756 752 748 745 742 738 735 732 729 726 723 720 718 714 711 708 704 700 697 694 691 687 683 680 676 673 670 666 663
887 888 890 891 886 882 884 883 880 870 854 849 854 853 852 854 853 855 858 852 847 849 848 846 846 843 841 839 836 833 831 829 823 817 816 816 814 811 810 806 804 802 799 796 793 789 787 784 782 780 778 776 772 769 766 762 758 755 751 748 745 741 737 734 731 728 725 723 720 717 714 710 707 703 699 695 692 688 684 680 677 673 670 668 664 661
886 889 889 888 884 882 883 882 880 873 860 852 852 851 852 854 853 858 861 850 843 846 847 844 845 843 840 838 836 833 833 830 823 817 816 815 812 810 809 805 802 799 796 793 791 787 784 782 781 778 776 774 771 768 765 761 757 754 751 747 744 740 737 734 731 728 725 723 720 716 712 709 705 702 698 693 689 685 682 678 674 670 667 664 661 658
882 886 888 887 883 882 885 882 875 867 859 854 854 854 854 852 855 866 866 850 842 845 845 844 844 842 839 838 836 833 831 828 823 818 815 813 811 808 806 804 800 797 794 791 788 785 782 781 780 778 776 774 771 768 764 760 756 753 750 747 743 740 737 734 730 728 725 722 718 714 711 707 704 700 696 691 687 683 679 675 672 668 664 661 657 654
883 885 887 886 885 884 883 881 875 865 858 858 858 855 856 861 866 868 859 849 846 846 844 844 844 841 839 837 834 831 828 824 821 817 814 812 809 806 803 801 797 794 792 789 785 783 781 779 777 777 775 774 771 767 763 759 755 752 750 746 742 739 736 733 730 727 724 720 717 713 709 705 701 697 693 689 684 680 675 672 669 665 662 658 654 651
888 888 884 883 885 883 880 884 884 872 860 859 860 858 860 867 868 861 853 851 851 847 844 844 843 840 838 835 832 829 825 821 818 815 812 810 807 804 802 798 795 792 789 786 783 781 779 777 776 775 774 772 770 766 762 758 754 752 749 745 742 739 735 732 729 726 723 719 715 711 707 702 698 695 691 686 682 678 673 669 665 662 659 656 652 648
890 891 888 887 889 889 888 888 881 866 858 862 866 865 864 864 861 858 857 854 850 848 846 844 841 839 837 834 831 827 823 819 817 814 811 808 805 802 799 796 794 791 787 784 782 780 778 776 774 773 773 771 768 765 761 758 754 751 748 745 741 738 733 730 728 725 721 717 713 708 704 700 696 692 688 684 680 676 671 667 663 659 655 653 650 646
891 890 891 892 890 888 887 880 868 861 862 867 867 866 864 862 861 861 859 855 852 850 847 843 840 838 836 833 830 825 821 818 816 812 809 806 802 800 798 795 792 789 786 784 781 779 778 776 773 772 770 769 767 763 760 758 754 750 747 744 740 736 732 729 727 723 718 715 711 707 703 698 693 690 686 682 679 675 670 666 662 657 653 650 647 644
892 892 892 891 886 884 880 873 867 867 868 867 866 865 865 864 862 861 859 855 852 849 847 844 841 837 835 832 829 825 821 817 814 811 808 804 801 799 796 793 791 788 785 783 781 779 777 774 773 771 768 766 765 762 759 757 754 750 747 743 739 735 732 729 725 720 717 713 709 705 701 696 691 687 684 681 678 674 670 666 661 657 652 648 645 642
893 895 892 889 888 887 880 871 870 873 871 869 867 865 864 864 862 861 859 855 852 849 846 844 841 837 834 831 828 824 821 817 813 810 806 804 801 797 794 792 789 787 785 783 781 779 776 774 772 770 767 765 763 761 759 756 753 750 747 742 738 735 732 728 724 719 716 712 708 703 699 694 690 685 682 679 675 671 668 664 660 656 651 647 644 640
896 894 892 891 891 889 880 871 871 873 871 870 869 865 864 864 862 860 859 855 852 849 845 842 840 837 833 830 827 824 820 816 814 810 806 803 800 796 794 791 788 786 785 783 782 779 777 774 772 769 767 764 762 760 758 755 752 749 745 740 738 735 731 727 723 719 715 711 706 702 698 693 690 685 681 677 674 670 666 662 658 654 650 646 643 638
897 893 893 894 892 888 880 874 874 872 868 867 868 867 866 865 862 860 858 855 851 848 844 841 839 836 833 830 827 823 819 816 813 810 807 803 799 796 794 790 788 787 785 784 783 780 777 774 771 769 767 765 762 759 756 753 750 747 743 740 738 735 730 726 722 719 715 710 705 701 697 693 690 686 681 676 672 669 665 662 659 654 648 645 643 639
897 895 895 898 897 893 885 881 882 881 874 869 868 868 867 865 864 861 857 854 851 848 844 841 838 835 834 831 828 824 821 816 814 811 807 803 800 797 794 791 789 787 786 785 783 780 777 775 772 770 768 765 761 758 755 752 749 745 742 740 737 734 730 725 721 718 714 709 705 700 696 692 689 685 682 677 671 666 661 658 657 655 650 645 642 639
899 898 898 900 900 895 889 885 886 886 881 874 871 869 868 866 864 861 858 855 853 849 847 843 839 836 833 831 829 827 822 818 815 812 807 804 801 798 796 793 790 788 787 786 782 779 777 775 773 770 767 763 760 757 754 751 748 745 743 741 737 733 729 725 721 717 713 709 705 701 697 693 688 684 681 678 673 668 662 655 651 651 650 647 642 638
Wind_Speed
5 6 5 1 3 5 4 2 2 4 3 3 3 3 5 5 5 7 8 7 4 3 7 6 6 7 6 9 9 7 6 7 7 7 6 6 5 4 5 4 4 4 1 4 8 10 13 18 24 26 27 30 33 33 30 26 25 28 30 30 29 29 29 30 31 30 30 31 30 28 28 28 28 29 29 24 21 21 21 22 24 27 31 33 34 33
6 7 2 4 5 4 5 4 3 5 3 2 3 4 6 4 6 9 8 7 5 3 8 9 7 10 8 8 8 7 7 6 8 7 6 6 5 4 4 3 3 2 1 5 8 11 16 21 25 26 27 30 31 30 28 26 27 29 28 27 28 29 29 30 31 31 31 30 29 29 28 28 27 26 23 22 23 24 23 23 24 25 28 31 33 34
6 4 5 6 3 3 4 3 4 5 3 3 1 2 4 4 6 10 7 4 5 3 8 10 7 9 9 6 8 8 7 4 5 7 6 6 6 4 2 2 1 2 3 4 6 11 18 23 25 25 25 28 29 27 27 27 28 27 26 27 27 28 28 29 31 31 31 30 29 27 27 27 27 25 25 25 26 26 25 25 25 26 27 30 33 34
4 2 6 4 3 4 5 5 7 6 5 3 2 2 4 5 5 7 6 6 6 4 7 10 7 7 5 2 5 5 5 5 5 7 6 5 6 4 2 2 2 4 4 5 6 11 19 21 21 23 26 30 30 27 27 27 26 25 25 26 26 26 28 29 31 32 32 31 28 26 27 28 28 28 29 29 29 29 28 27 26 26 28 30 31 32
2 5 4 4 4 1 2 6 7 6 6 3 1 1 4 7 5 8 8 8 8 5 4 5 6 5 2 4 3 1 4 5 5 6 5 3 4 4 2 3 4 5 5 6 7 10 14 17 20 26 28 29 27 26 26 25 24 24 25 25 25 26 27 29 31 33 34 32 30 29 29 29 27 27 28 28 29 30 28 26 26 27 28 29 30 31
1 4 1 6 6 4 4 3 3 3 4 6 3 4 5 8 9 12 9 8 7 5 2 4 4 5 3 2 5 3 3 4 4 5 5 4 3 3 4 5 4 5 5 6 6 7 12 18 23 26 26 25 25 27 26 23 24 26 25 24 25 26 27 28 30 33 34 33 31 30 28 27 25 25 25 25 27 29 28 27 27 28 28 29 30 32
2 4 4 4 4 7 6 2 1 3 4 4 5 4 5 7 10 15 12 6 2 4 4 3 1 5 5 3 5 5 4 4 4 4 4 3 3 4 4 4 4 5 4 4 5 8 14 19 20 21 24 26 28 27 24 24 28 28 25 24 26 28 27 28 30 31 31 30 29 29 28 27 26 26 27 28 29 30 30 30 30 29 28 29 29 30
2 5 7 6 5 6 4 3 3 5 5 4 6 1 6 9 11 15 11 4 3 4 5 2 1 4 4 4 2 4 6 4 4 4 3 2 3 3 4 4 5 3 2 5 7 10 13 14 18 22 27 29 28 25 23 26 29 28 26 27 29 29 28 28 29 27 26 27 29 29 30 29 29 29 31 32 32 32 32 32 32 31 30 30 30 30
1 2 2 4 5 4 2 4 5 5 3 7 7 3 6 8 12 13 8 5 3 1 5 4 2 2 5 3 1 4 5 3 4 4 3 2 1 3 4 5 4 2 4 7 7 7 10 14 21 26 28 30 28 23 24 27 27 27 28 29 29 27 28 29 27 25 27 29 29 28 28 29 31 32 34 35 34 33 33 33 33 32 32 32 30 30
1 2 4 4 3 2 5 7 5 5 3 7 6 5 7 7 10 9 5 4 1 1 5 4 3 1 5 4 1 2 2 3 3 2 3 2 2 5 4 3 4 4 5 6 5 8 12 19 25 27 27 30 29 25 26 27 26 28 29 28 26 26 29 29 26 27 30 30 26 24 25 27 30 33 35 36 35 34 33 32 33 33 34 33 30 29
2 2 3 3 1 3 5 7 5 6 5 5 6 6 7 6 6 4 1 1 2 1 5 5 0 2 4 4 2 2 2 5 4 2 3 3 5 4 2 3 5 5 4 4 6 11 19 23 26 27 30 32 31 27 26 26 28 30 28 25 25 28 31 29 27 30 30 27 24 24 26 27 30 34 35 36 36 34 32 32 33 34 35 33 31 29
5 3 1 2 1 1 2 5 4 2 1 3 4 4 6 6 4 4 4 4 2 5 6 4 3 4 2 5 3 4 4 5 5 3 4 3 3 3 3 4 4 4 5 6 7 12 18 22 24 28 31 33 31 26 25 27 29 29 26 26 29 31 31 29 29 30 28 25 24 25 28 30 33 37 38 37 37 36 32 30 32 32 32 33 31 28
4 3 3 3 1 1 2 4 5 5 6 5 4 5 6 5 5 5 4 4 3 6 5 2 8 5 5 5 4 5 6 6 6 6 5 1 3 4 4 4 4 5 8 10 10 11 13 16 21 26 30 31 27 24 25 29 30 29 29 30 30 31 32 31 30 30 28 26 25 27 30 34 38 41 41 40 39 37 34 31 30 29 30 31 31 29
4 5 4 3 2 1 2 2 4 4 4 4 2 3 3 3 5 6 4 4 6 7 3 3 5 5 5 3 5 7 7 8 5 5 5 3 3 3 3 4 7 10 12 12 10 10 11 16 22 26 29 28 25 24 27 30 30 31 31 31 31 32 33 32 31 31 28 26 26 29 32 37 42 44 43 41 38 36 34 33 31 30 29 29 30 30
2 5 3 1 2 1 2 1 3 2 2 3 2 5 3 2 1 4 3 3 7 10 7 3 2 4 3 2 6 6 5 4 2 3 2 4 4 3 6 8 12 14 12 11 11 10 14 20 25 27 29 27 24 26 29 31 32 32 32 32 32 32 33 33 33 31 27 26 27 31 36 41 44 44 41 37 33 32 32 32 31 31 29 28 28 29
1 5 6 3 1 1 1 2 3 3 2 4 2 4 1 3 4 3 4 5 6 9 8 3 2 4 3 3 3 3 4 5 4 2 5 10 10 10 10 12 13 13 12 11 10 11 16 23 26 27 27 25 25 28 31 33 34 34 34 33 32 33 33 34 34 31 28 27 31 34 39 43 45 42 36 31 29 30 32 33 32 30 29 28 28 27
1 5 7 5 4 1 3 2 0 2 1 2 2 1 4 4 6 2 4 4 3 6 6 2 3 3 4 4 2 5 5 6 7 9 12 13 13 13 12 13 13 12 12 12 11 11 16 23 27 26 25 25 27 30 33 35 36 35 34 33 32 33 34 35 35 32 29 30 33 36 39 42 42 36 30 27 27 29 32 33 30 28 27 27 28 27
1 5 8 4 4 4 2 1 2 1 2 1 1 4 2 1 4 2 2 4 4 6 5 2 4 4 3 3 3 6 7 9 10 13 14 13 14 14 13 13 13 12 12 12 12 14 19 24 25 25 26 29 30 32 34 37 37 35 33 33 33 34 35 36 34 31 29 31 34 36 39 40 37 30 26 26 26 28 31 30 28 27 29 30 28 27
1 3 8 4 3 4 2 4 4 4 1 3 3 1 2 1 2 1 1 3 4 7 6 5 7 3 2 3 4 6 6 8 10 12 13 14 13 13 14 14 14 14 12 12 12 13 18 23 23 25 30 32 32 34 36 37 36 34 34 35 36 35 35 35 34 31 29 31 33 36 38 38 33 27 24 26 29 30 31 31 30 29 30 30 29 27
0 1 6 5 1 2 3 2 1 4 3 2 2 2 2 2 3 1 1 2 3 6 7 9 9 2 3 3 3 4 5 8 11 13 12 11 12 12 13 13 13 13 12 13 13 13 17 22 24 29 32 32 32 34 35 35 34 36 38 37 35 34 35 36 35 31 29 31 34 37 39 36 29 23 24 29 33 33 33 32 31 31 30 30 30 28
1 1 5 6 4 3 2 2 4 3 1 1 2 3 3 1 1 2 2 2 2 4 4 7 9 3 2 1 4 5 9 11 12 13 9 9 12 13 13 13 13 12 13 14 13 13 17 23 28 32 32 31 32 34 34 34 36 38 38 34 32 33 36 38 34 29 30 33 36 38 38 32 25 24 29 33 34 34 34 33 32 31 31 30 31 30
1 1 4 5 4 3 4 4 4 4 4 4 2 3 3 1 0 2 5 2 2 2 3 4 10 7 1 3 4 7 11 12 11 10 9 10 13 13 13 14 13 13 14 14 13 14 19 25 29 31 31 32 32 32 34 37 37 36 34 32 33 34 37 37 30 28 32 35 35 36 33 27 25 29 34 35 33 32 32 32 32 32 31 30 30 30
1 1 3 5 5 6 7 4 2 2 2 3 2 2 3 3 3 2 6 4 1 3 3 4 9 7 2 4 6 10 12 12 10 9 10 12 12 13 15 15 14 14 15 13 13 16 22 26 29 30 31 31 32 32 35 37 36 33 32 33 34 34 36 36 31 31 35 34 33 32 28 25 28 33 34 32 30 29 30 31 31 30 29 28 29 29
1 0 2 5 5 5 5 4 3 2 3 2 2 2 3 3 3 4 5 2 1 4 3 3 8 7 2 4 9 12 12 11 8 8 12 12 12 14 16 15 14 14 14 13 14 18 23 26 28 28 28 29 31 32 34 35 34 33 34 35 34 33 36 37 34 34 34 31 31 30 28 27 29 31 31 28 27 29 31 30 30 30 30 29 28 28
2 1 2 5 7 6 5 4 5 3 2 1 4 2 1 3 1 1 2 1 1 6 6 4 9 9 2 7 12 13 13 11 8 9 11 11 12 13 14 14 13 12 13 14 15 17 19 22 24 26 27 28 30 31 32 33 34 35 35 35 33 33 35 37 35 33 31 30 31 30 28 28 28 28 28 27 29 32 32 30 30 30 31 30 28 28
1 1 0 2 4 7 7 6 6 4 3 3 3 3 3 4 3 1 1 1 4 6 4 4 10 13 10 12 16 17 14 10 10 12 12 11 12 13 13 13 11 11 12 15 16 15 16 18 22 26 29 29 30 30 32 33 35 37 35 33 34 34 36 37 34 31 31 31 32 31 29 29 28 27 28 30 31 31 31 30 30 31 32 30 28 27
1 1 2 5 6 6 8 9 6 5 6 9 10 10 6 4 5 2 0 4 6 5 6 9 11 15 16 17 19 17 12 10 11 13 13 12 11 12 13 12 10 10 11 13 14 15 16 17 21 26 30 31 30 31 33 35 35 36 34 33 35 35 36 37 34 32 33 33 31 30 29 29 27 28 30 31 30 30 29 29 30 31 31 29 27 28
3 3 4 6 8 9 9 11 10 8 9 11 12 12 8 4 4 4 5 10 6 4 11 13 10 14 17 18 19 15 9 10 12 12 13 12 11 13 13 12 11 12 12 13 14 15 17 17 18 24 30 30 30 32 35 36 35 34 34 34 35 35 36 37 34 33 33 32 30 29 28 28 28 28 29 29 29 29 29 29 31 31 30 28 28 29
3 3 5 4 6 9 9 11 12 10 8 8 10 13 11 4 7 8 12 13 6 5 14 15 15 16 17 16 16 13 10 12 14 14 14 13 13 15 14 12 12 14 15 15 15 15 17 17 18 23 29 29 30 32 35 35 34 35 35 34 35 37 38 36 33 33 32 30 29 28 28 29 28 27 27 27 27 28 29 30 31 30 29 29 29 29
2 3 4 3 7 10 10 12 12 8 7 9 12 14 12 6 8 11 12 10 6 9 13 14 17 18 14 12 12 12 11 13 14 15 15 14 15 17 15 12 13 15 16 15 15 16 17 18 20 25 29 30 31 33 33 33 34 35 35 35 37 39 38 35 33 33 31 29 28 28 28 29 28 27 27 26 26 27 28 29 29 28 29 29 29 29
0 3 3 2 5 9 8 9 9 7 8 13 15 13 11 9 6 7 7 6 5 9 12 14 17 17 11 9 10 11 13 15 16 17 16 14 16 17 14 12 14 16 16 16 16 16 17 19 22 25 28 30 32 33 32 33 34 35 34 36 39 39 37 35 34 32 30 29 28 28 28 27 27 28 27 27 27 27 27 27 27 27 28 28 28 28
0 3 4 5 4 8 6 4 9 11 11 11 10 9 9 8 4 3 4 4 4 9 14 14 14 13 10 9 11 13 16 18 17 17 15 15 17 17 13 13 16 17 17 16 16 16 17 18 19 23 27 31 32 33 32 33 35 34 35 38 39 37 36 35 34 31 29 29 28 28 27 26 27 28 28 28 28 28 28 27 27 27 27 27 28 27
1 1 3 3 4 8 7 6 9 10 9 7 5 4 5 5 4 4 4 5 6 8 10 11 11 11 11 10 11 14 16 18 17 14 14 15 17 14 12 14 17 17 16 16 16 17 17 18 20 24 28 31 31 32 33 34 34 34 36 39 38 35 35 35 33 30 29 29 28 28 27 27 27 27 28 28 29 29 28 28 28 28 28 28 27 26
2 2 2 1 1 7 11 10 8 7 6 5 2 1 2 2 4 6 7 7 9 9 9 11 11 11 11 10 12 15 15 16 17 15 15 16 13 10 12 15 17 17 16 16 16 17 18 21 25 28 30 31 31 32 34 34 34 35 37 38 36 35 34 33 31 30 29 28 28 28 28 28 27 28 29 28 28 28 28 29 30 29 28 27 27 26
1 1 2 1 2 5 6 7 8 8 5 4 1 0 2 3 3 8 11 10 11 11 10 10 11 10 11 11 11 14 16 17 17 17 16 13 10 10 14 16 17 17 17 16 16 17 21 26 29 30 30 31 32 33 33 34 35 37 38 37 36 34 33 31 30 29 28 28 29 29 29 29 29 29 29 28 27 28 30 30 30 29 28 27 26 25
1 0 1 1 2 4 4 5 6 10 6 1 2 3 3 2 2 7 13 12 9 7 6 8 11 11 12 12 12 14 17 17 15 14 12 9 10 13 15 16 17 18 17 18 19 20 25 30 31 30 30 32 34 33 33 34 35 36 37 36 35 34 32 31 29 27 27 28 28 29 30 31 31 30 29 27 28 30 31 31 30 30 28 27 26 26
3 1 2 2 1 2 4 5 6 10 8 2 2 3 2 2 4 7 12 11 4 3 3 7 12 13 12 12 12 14 17 16 12 9 7 9 13 16 16 16 19 20 21 24 25 26 31 33 31 30 31 33 35 34 33 35 35 35 35 35 34 32 31 29 27 28 29 28 28 30 32 32 31 29 28 29 30 31 32 32 31 30 28 26 26 26
3 2 1 1 1 1 4 6 6 9 9 2 3 3 1 3 5 6 10 8 1 2 7 10 11 13 13 13 14 15 15 13 11 8 8 12 15 16 16 20 24 25 26 27 28 30 34 33 30 30 32 34 36 34 34 35 34 34 34 34 32 32 30 28 28 29 29 29 30 32 33 32 30 28 30 32 33 33 33 32 31 30 27 26 26 26
2 0 4 2 3 2 3 5 5 7 7 3 3 5 4 5 5 5 7 5 1 5 12 12 10 12 13 13 14 14 11 10 10 10 11 14 16 16 16 19 24 27 28 28 30 33 34 31 29 31 33 35 34 34 35 35 33 33 33 33 32 30 28 28 30 30 30 30 33 34 33 31 29 29 31 34 35 35 35 33 33 31 29 27 26 26
4 3 3 0 4 4 4 5 4 4 5 4 4 6 5 4 3 6 9 8 7 12 14 12 12 12 12 12 13 11 10 10 11 13 14 16 18 19 20 21 23 27 28 29 33 35 33 29 28 31 34 35 34 35 36 35 31 31 33 33 30 28 27 30 31 29 30 33 34 33 31 30 30 31 33 35 36 36 35 34 34 32 30 28 27 27
3 2 0 2 4 5 5 5 4 4 5 4 5 5 6 7 6 8 10 10 12 15 14 13 14 14 12 12 10 9 10 11 13 16 17 17 17 20 24 26 28 29 29 31 35 34 29 26 28 31 33 34 35 36 36 33 30 30 32 31 28 27 30 32 29 28 32 34 33 31 31 31 33 34 35 36 36 36 35 34 33 31 30 31 30 30
3 2 2 2 3 3 3 4 6 6 2 2 6 4 4 8 9 8 9 11 13 15 14 13 14 14 13 11 10 10 12 15 16 17 17 16 16 18 23 27 28 29 31 33 34 31 26 26 30 32 32 34 36 35 34 32 30 29 30 29 27 30 34 31 27 30 34 33 31 32 34 35 36 36 36 36 36 35 35 35 33 31 31 31 31 31
2 2 4 4 2 2 3 3 5 6 3 8 11 7 5 8 9 8 9 11 12 14 14 12 12 13 13 12 11 13 16 17 18 18 17 16 17 18 23 26 27 28 31 32 32 29 28 28 30 31 32 34 35 34 34 33 30 29 29 29 29 34 33 28 28 34 36 33 33 35 36 37 38 37 36 36 35 34 34 34 33 32 31 29 29 28
2 2 3 3 1 3 5 3 5 8 7 9 11 9 9 10 9 7 9 10 10 12 12 11 12 13 14 14 14 15 17 18 18 18 18 17 17 18 22 25 27 29 30 30 29 29 30 30 29 30 33 34 34 34 33 31 30 30 30 30 34 37 31 26 31 37 37 34 34 35 36 37 38 38 36 35 34 33 33 34 33 32 30 28 26 24
2 2 2 2 2 2 3 7 9 9 7 8 9 11 12 12 10 9 11 11 11 10 10 10 12 14 14 16 16 15 15 17 18 19 19 18 18 19 22 26 28 29 30 30 29 30 31 30 29 30 32 34 35 34 31 30 30 29 29 33 38 36 29 29 37 38 35 33 33 34 37 39 38 36 34 32 32 32 32 32 31 30 29 28 24 21
2 1 1 1 4 4 5 8 9 9 10 13 14 12 10 10 10 11 12 12 11 11 10 11 13 14 15 15 15 14 15 17 19 20 19 18 18 21 24 26 29 32 32 30 31 32 31 29 28 28 30 33 35 32 30 32 30 28 31 37 38 32 29 35 40 36 32 33 35 36 38 38 36 34 32 32 33 31 30 29 28 27 27 25 23 20
2 2 1 1 4 6 6 7 8 10 13 15 14 11 11 12 12 12 12 12 12 13 12 12 14 15 15 15 15 16 16 18 19 18 18 17 17 20 23 26 28 32 32 31 32 33 30 28 28 27 28 31 32 32 33 33 29 30 36 38 32 29 34 39 37 32 32 36 38 37 37 35 32 32 33 34 34 32 30 29 27 25 24 24 22 20
2 2 2 3 4 7 10 12 13 14 14 13 11 11 12 13 14 14 13 13 14 16 17 17 17 15 13 14 15 16 17 18 18 18 17 17 16 19 24 28 29 31 32 33 34 33 30 29 28 26 28 30 32 34 34 31 30 35 38 33 29 33 39 38 33 31 34 37 37 35 33 30 28 30 34 34 32 31 31 30 28 26 26 25 24 24
3 3 3 4 6 8 10 13 15 17 16 14 13 14 14 13 14 14 14 14 16 17 18 20 21 19 17 16 16 17 18 19 19 19 20 18 17 21 27 30 30 30 31 33 35 33 31 29 27 27 30 32 33 34 32 30 34 38 34 29 33 39 39 34 31 32 35 36 35 33 31 28 29 31 33 33 32 32 30 28 26 27 29 29 27 25
4 4 4 5 6 7 9 11 13 13 13 13 15 17 16 14 13 14 15 16 17 17 18 19 22 24 24 23 22 20 18 18 21 23 20 18 21 27 31 31 31 30 30 33 35 33 30 28 28 31 33 33 34 32 29 32 37 35 29 31 38 40 37 33 31 32 33 34 32 31 30 29 31 32 31 31 33 34 33 30 26 22 23 27 28 26
3 3 4 5 5 7 10 12 11 9 10 13 16 16 15 15 14 14 16 17 16 19 21 20 20 21 21 24 28 26 20 20 26 26 22 22 28 33 34 34 32 30 32 34 32 29 29 30 32 34 34 33 32 30 31 35 34 29 29 36 40 39 36 33 31 31 32 31 31 30 30 30 31 32 31 31 31 30 30 32 30 23 21 24 27 27
Wind_Direction
68 63 41 109 265 292 304 326 181 247 266 265 297 329 296 291 289 287 292 296 346 358 283 273 272 273 242 211 198 188 165 148 159 158 160 155 137 135 127 139 144 127 116 39 29 21 20 11 1 355 352 349 343 341 341 343 345 343 340 337 336 335 334 333 328 325 323 320 318 316 315 311 311 313 306 298 301 303 299 298 302 304 306 308 309 308
60 71 359 255 249 287 297 295 324 316 304 298 290 311 314 296 284 290 286 295 0 22 285 285 286 282 261 212 190 175 165 170 172 164 160 144 128 127 128 153 168 135 35 30 23 20 15 2 357 355 351 347 341 342 347 347 344 342 342 342 340 340 339 337 334 330 325 322 321 319 317 317 320 320 313 310 313 311 306 303 302 301 304 305 303 303
45 55 300 280 300 340 328 354 29 0 8 27 343 335 324 303 295 291 273 291 352 5 288 292 292 278 267 204 175 172 168 170 156 143 140 130 113 102 127 193 161 42 3 15 16 14 7 358 355 352 349 347 345 345 346 343 341 341 342 341 340 340 340 339 336 332 327 324 325 324 324 325 325 322 319 315 312 309 306 303 303 301 302 302 300 298
53 324 286 302 2 4 352 16 40 24 20 39 52 39 303 302 331 298 289 319 311 267 263 286 296 280 278 134 148 172 148 120 112 115 116 123 132 142 185 196 109 59 21 13 12 8 2 354 352 351 350 348 344 341 338 337 337 337 336 337 339 340 340 340 337 332 326 322 322 320 319 318 317 315 314 313 311 308 304 300 301 304 303 300 297 296
109 248 277 1 2 36 27 7 38 38 354 323 169 124 283 297 301 271 288 322 310 277 255 298 320 298 262 127 148 153 105 115 113 108 118 147 163 162 112 87 81 62 44 26 12 360 352 349 352 353 347 342 337 333 330 331 334 333 332 335 337 338 337 337 335 331 325 321 320 319 317 314 312 311 310 309 307 304 302 301 302 304 302 298 296 295
304 256 350 16 354 47 75 18 50 85 351 319 247 215 266 295 294 288 307 339 339 319 318 25 355 298 294 178 187 178 115 129 131 128 160 190 162 119 79 68 53 43 44 30 3 339 347 355 353 346 339 336 334 329 328 332 335 332 330 331 332 332 332 331 331 329 323 318 318 319 317 316 314 312 308 305 303 300 299 299 301 301 298 296 296 293
324 334 38 40 12 47 59 3 252 119 54 321 246 227 288 312 306 301 315 343 342 280 291 28 279 266 309 293 214 176 142 141 157 171 187 179 114 96 89 72 47 40 30 353 331 347 358 355 343 335 337 339 334 330 333 336 334 329 325 326 328 328 328 327 327 326 323 319 320 320 318 316 313 308 305 302 300 298 297 297 296 294 294 294 294 292
310 349 20 35 39 46 35 321 247 131 93 273 251 288 321 315 302 296 305 294 238 269 306 343 211 252 291 286 237 140 128 139 192 206 191 129 104 107 102 68 43 33 341 328 349 1 351 335 334 340 342 338 331 329 334 332 330 326 321 322 324 325 325 325 324 323 323 322 321 320 317 313 310 306 302 300 297 295 294 293 292 290 291 291 289 288
305 350 0 43 38 26 331 270 237 141 119 258 259 305 303 292 288 289 291 270 245 283 304 317 9 299 271 281 52 104 120 154 213 211 162 144 124 88 74 40 9 330 336 357 356 330 320 333 345 345 338 333 326 323 326 327 328 326 320 318 321 323 324 323 321 321 322 321 319 319 318 316 315 312 308 304 300 296 294 291 289 290 292 290 287 284
240 219 201 126 70 321 277 268 234 163 199 267 285 305 293 284 283 280 263 266 287 150 255 288 27 354 282 300 69 118 125 173 214 202 171 177 34 45 48 357 334 337 350 351 308 302 333 348 347 341 334 331 323 316 320 325 327 325 319 317 320 324 323 320 318 320 321 320 320 321 321 319 319 318 314 310 305 302 300 296 293 293 292 288 286 284
288 273 196 140 146 229 267 280 241 192 220 302 347 329 303 292 291 290 205 113 68 271 245 230 153 24 316 296 229 198 183 170 179 233 269 327 11 11 333 329 338 335 322 303 304 337 348 346 341 338 334 331 323 316 321 326 327 325 320 320 322 323 321 318 317 320 319 317 320 322 322 321 320 318 315 311 306 303 303 300 297 296 294 290 285 283
328 347 259 257 248 164 337 314 297 278 326 18 20 354 331 317 332 3 10 43 48 275 252 232 347 10 275 263 239 222 216 175 166 198 237 267 312 310 316 334 324 302 309 330 343 349 345 339 338 338 334 330 324 319 324 329 329 329 326 325 323 321 320 317 317 319 316 315 318 322 323 321 320 318 313 308 304 300 298 297 297 296 297 296 290 284
315 285 278 297 302 115 40 343 330 352 25 34 33 26 2 341 352 356 345 352 296 253 240 352 2 343 242 245 221 211 215 204 199 185 174 202 327 331 331 316 310 331 348 354 353 344 338 336 337 338 335 330 325 325 332 334 334 332 328 325 322 320 319 318 318 318 314 313 318 322 324 323 321 315 308 303 299 296 294 294 294 294 296 299 296 289
322 303 320 343 321 184 94 31 326 326 358 0 24 67 50 22 346 323 310 321 296 267 252 35 0 294 277 273 207 209 211 208 203 157 120 28 340 311 314 332 350 358 359 356 347 338 337 337 338 338 335 329 327 333 336 335 333 330 326 325 322 320 320 320 319 317 314 315 320 323 324 323 319 312 303 298 296 294 293 292 291 291 293 294 293 289
332 309 294 286 309 343 61 172 207 217 294 285 158 122 110 122 217 268 252 277 293 289 295 347 311 243 272 257 204 204 193 157 104 133 130 345 340 353 1 5 1 358 358 351 342 339 338 338 338 337 333 330 332 336 336 332 331 329 327 324 322 321 321 321 321 318 316 317 321 323 323 322 317 308 299 295 296 298 298 296 292 290 290 289 287 285
334 274 256 252 284 49 322 241 164 102 308 273 120 89 53 177 177 217 226 228 267 289 290 294 247 216 232 255 203 132 95 81 50 345 348 353 2 11 6 3 0 356 352 346 341 339 337 337 336 333 331 331 332 333 333 331 331 329 326 323 322 322 321 322 320 317 316 318 320 322 323 321 314 304 296 296 301 306 308 306 299 293 290 287 283 281
341 277 278 311 326 218 194 234 216 112 233 312 49 254 246 177 146 181 267 270 292 286 275 245 252 289 329 318 36 63 36 21 5 356 357 357 2 6 3 359 355 351 346 343 339 335 336 336 332 330 331 332 333 332 332 331 330 328 324 323 323 322 321 320 319 316 315 317 320 322 321 318 311 302 298 302 308 312 314 311 305 301 301 298 289 282
189 285 287 284 289 269 191 138 300 252 143 91 262 242 254 81 101 115 284 314 317 279 270 218 239 287 348 316 356 29 10 357 357 355 351 355 5 3 356 352 348 347 344 338 335 334 335 334 329 332 336 335 333 332 331 330 328 326 326 325 324 321 319 319 317 314 314 318 320 320 319 315 308 301 301 307 313 315 314 309 306 309 310 308 302 292
157 297 292 251 224 286 5 47 323 307 96 143 208 205 89 25 309 25 328 286 289 283 285 275 267 259 188 245 336 9 4 354 348 347 351 1 7 355 347 347 345 345 343 337 337 336 334 334 335 339 338 334 333 332 331 329 328 328 327 325 322 319 318 318 316 313 314 319 320 319 317 313 306 304 309 315 316 315 312 308 307 309 308 307 306 301
65 254 286 290 290 326 4 39 274 294 331 34 29 14 60 167 203 205 214 202 252 278 284 294 295 260 193 249 8 14 354 357 350 348 359 5 359 348 345 347 344 344 344 339 337 336 337 338 340 341 336 333 333 332 330 329 330 329 326 322 321 319 319 318 314 312 316 319 320 319 315 310 306 311 319 319 316 312 310 306 304 304 306 305 304 303
348 188 261 300 349 2 322 257 195 208 266 29 11 315 315 304 216 255 254 172 189 259 273 304 299 259 169 32 60 22 357 2 356 353 2 1 351 348 347 346 344 345 343 338 338 340 341 340 339 338 335 334 333 332 331 331 330 327 323 321 322 323 322 318 313 315 320 320 320 317 312 308 310 319 322 318 314 310 306 304 302 302 303 303 303 304
331 218 253 301 331 309 260 233 213 211 193 169 193 229 229 242 314 301 281 228 142 221 233 283 287 278 162 93 55 17 359 356 359 5 4 351 348 348 347 347 347 345 341 338 343 344 341 339 338 336 335 335 334 333 333 330 327 325 323 323 325 324 323 320 316 318 321 320 319 315 311 311 318 322 320 316 310 307 305 305 304 301 299 301 304 305
217 198 265 273 264 267 270 267 281 271 194 155 183 206 173 152 143 207 266 276 243 254 247 253 276 279 153 107 28 11 356 350 6 16 358 346 348 348 346 347 346 342 339 342 346 344 340 338 336 334 335 335 334 334 331 328 326 325 324 325 325 324 325 324 319 318 319 319 317 315 313 316 319 319 316 311 308 310 310 308 306 304 305 307 308 308
306 31 296 281 269 274 288 314 342 13 57 48 273 234 168 174 179 197 227 260 303 256 241 259 275 269 145 65 14 2 348 350 11 9 352 347 347 348 346 344 342 338 340 344 344 341 338 336 334 333 333 334 334 332 329 327 327 326 325 324 324 324 326 325 320 318 319 318 317 316 314 315 317 317 313 310 313 315 312 310 312 315 317 316 313 312
300 288 333 323 322 321 328 338 324 328 48 265 261 271 204 200 179 261 234 66 298 240 207 224 273 271 307 10 358 349 345 354 4 354 350 349 346 348 344 338 336 337 341 343 339 337 336 334 333 332 332 333 332 330 329 329 328 327 325 325 324 325 327 325 321 319 320 320 318 317 316 316 316 315 314 316 316 315 312 312 316 320 319 316 314 313
263 235 331 319 312 311 307 307 305 306 312 283 277 303 274 209 180 249 288 257 262 254 218 218 266 282 314 344 343 342 348 356 353 346 346 348 346 343 337 332 334 339 341 338 334 333 333 332 331 331 332 332 331 330 330 330 329 327 326 326 326 325 326 327 324 322 322 320 318 317 316 316 316 316 316 316 315 313 312 313 316 318 318 315 314 314
107 265 230 211 223 253 269 274 287 315 309 299 297 292 274 214 197 188 138 251 262 293 282 255 267 294 317 333 335 340 352 351 342 341 341 342 342 337 332 329 332 337 336 333 331 329 329 330 331 331 331 331 331 332 331 330 328 326 326 327 326 325 327 327 325 323 322 320 319 318 318 317 317 317 316 314 313 312 312 313 315 317 316 313 312 313
75 306 260 233 236 247 262 276 291 308 297 289 291 289 278 221 189 180 224 254 277 323 285 280 305 317 317 327 332 339 355 344 335 339 338 336 337 334 329 327 331 335 332 329 328 328 328 329 329 330 330 330 332 332 331 329 327 326 327 327 326 327 327 326 324 323 322 321 320 319 320 319 318 316 315 313 313 313 314 316 316 316 315 313 311 311
104 265 250 246 264 267 274 283 290 296 285 273 278 287 288 246 192 208 238 253 266 270 274 297 326 318 312 324 333 340 349 338 332 333 332 331 332 330 327 326 329 331 329 328 329 329 329 329 329 330 330 330 332 332 330 329 328 328 328 326 327 329 327 325 324 324 323 322 322 321 320 320 318 316 315 315 316 316 316 317 317 316 315 313 310 310
133 255 262 271 279 279 278 278 285 291 288 288 288 291 297 274 219 225 245 260 265 258 273 306 317 308 313 329 334 339 339 329 326 327 327 329 329 327 325 325 329 330 328 328 329 330 330 329 329 329 330 331 332 332 330 329 329 329 328 327 329 329 327 326 325 325 324 323 323 322 320 319 318 317 317 317 317 317 316 316 316 315 314 312 310 310
137 278 320 6 305 291 276 269 285 293 290 295 294 293 301 297 259 238 258 284 296 285 296 314 309 304 320 341 338 335 331 327 326 325 326 328 326 324 324 325 330 330 328 328 328 329 330 328 328 329 330 331 331 331 330 329 329 329 328 329 330 328 328 327 326 325 325 324 324 323 321 320 320 319 319 318 317 317 316 316 315 313 312 311 309 308
27 288 343 34 337 295 279 288 307 308 301 296 296 302 306 301 285 241 250 265 287 299 308 313 308 309 329 345 334 328 329 330 326 323 326 326 324 323 325 329 329 327 325 325 324 326 328 327 327 328 329 329 330 330 330 330 329 329 330 330 329 328 328 327 325 325 326 325 324 323 322 322 321 321 320 319 319 318 317 316 315 313 311 309 308 307
118 328 330 12 321 291 299 320 309 309 317 308 296 302 297 295 302 285 272 286 298 305 311 309 308 319 333 336 326 325 331 330 323 322 324 321 320 321 326 329 326 323 322 322 322 325 326 326 327 328 328 327 328 329 329 330 330 329 329 328 327 328 328 326 325 325 325 325 324 324 324 324 323 321 321 319 318 317 317 316 315 313 311 309 307 306
106 102 273 272 278 288 306 326 324 322 325 299 266 179 234 280 308 298 291 296 299 300 302 304 314 328 331 326 322 324 326 323 319 318 316 315 318 323 327 326 322 320 321 322 324 326 326 328 329 328 328 327 328 329 330 330 331 329 328 328 327 328 328 327 326 325 324 325 325 325 325 325 324 322 320 319 318 317 317 317 315 312 311 310 309 307
58 55 269 240 211 269 310 352 343 321 297 256 238 11 282 257 268 294 296 292 297 307 315 320 323 323 317 312 314 317 318 318 316 312 309 313 322 328 326 323 321 322 324 325 327 327 328 330 329 328 329 329 329 330 331 332 332 330 329 329 328 328 328 328 326 325 326 327 327 327 327 326 324 321 318 318 319 319 317 315 314 313 312 311 308 306
102 314 288 263 253 289 342 6 322 301 296 300 316 312 308 302 316 315 308 304 313 329 343 333 315 307 307 306 307 314 317 316 310 305 307 321 333 331 326 322 322 324 325 326 326 327 329 330 328 328 330 330 330 332 333 333 332 330 329 329 329 328 328 328 327 327 328 328 327 328 327 325 322 319 318 320 320 319 317 315 313 313 312 309 306 304
135 150 337 322 259 294 321 304 287 297 312 340 305 299 336 327 315 313 307 312 347 38 351 319 306 306 312 308 308 317 317 313 307 305 320 336 333 327 321 319 322 322 323 324 324 326 329 328 327 330 333 332 331 333 334 333 332 331 329 329 330 329 328 327 328 329 329 327 327 328 327 324 321 320 320 320 319 317 316 315 313 312 310 306 304 303
121 160 131 332 284 347 323 302 302 314 317 305 253 272 261 268 280 291 299 308 50 49 335 328 314 314 320 316 316 320 316 312 310 316 336 337 328 323 320 319 321 322 322 323 324 327 327 327 330 334 335 333 332 334 336 334 333 332 330 330 331 330 328 329 330 330 328 328 330 329 326 323 321 320 319 318 317 315 315 313 312 310 308 303 301 300
346 109 113 111 289 316 320 299 298 305 306 292 259 261 248 254 271 289 298 303 33 348 339 338 323 319 323 319 319 322 320 316 314 320 334 331 325 324 322 321 322 323 322 323 325 326 326 328 334 337 337 336 335 337 338 335 333 333 332 331 331 329 329 331 331 330 331 332 330 326 323 322 320 318 317 316 315 314 313 312 311 309 306 301 297 295
337 357 56 354 280 289 294 286 272 259 270 281 277 279 287 283 300 323 313 317 347 345 342 340 327 322 323 319 319 323 320 316 315 320 326 325 323 323 322 321 322 322 322 324 326 325 326 332 338 339 339 340 338 338 337 333 332 333 333 332 330 329 331 332 330 332 335 332 328 324 322 321 319 317 316 315 314 313 313 312 310 308 305 302 298 296
345 342 326 252 276 292 291 286 286 270 269 286 280 283 308 312 324 333 318 319 338 338 337 337 329 324 323 318 316 316 314 311 310 314 320 322 320 320 321 321 321 321 322 324 325 326 330 336 340 340 341 341 339 337 336 333 332 334 334 331 329 331 333 330 329 335 336 330 325 324 323 321 319 317 317 316 315 314 312 312 310 307 305 304 302 300
343 332 322 301 288 283 261 278 304 294 263 341 318 304 347 339 329 324 318 322 331 330 329 332 328 323 321 314 306 308 310 309 309 313 319 321 319 319 321 321 321 322 323 323 325 330 336 338 339 340 342 342 340 337 335 333 332 333 333 330 331 333 331 329 332 337 333 327 325 324 322 321 320 319 318 317 317 315 313 313 313 310 308 306 303 301
319 319 316 302 283 305 298 300 316 307 343 21 358 352 19 354 327 316 319 324 327 325 326 328 324 322 320 313 307 308 309 310 314 317 319 319 318 318 319 321 323 324 323 324 328 336 341 340 340 341 341 341 339 336 335 334 333 333 332 332 333 332 328 328 336 336 330 326 324 322 322 322 322 321 320 318 318 316 314 315 315 313 311 308 305 303
298 308 308 293 295 356 332 304 296 303 327 16 9 347 340 337 330 328 327 325 327 327 326 323 322 323 322 318 316 313 310 314 318 320 320 318 318 318 319 322 324 324 324 326 331 339 342 340 338 339 339 339 338 336 336 336 334 333 333 334 333 329 326 332 338 334 328 326 324 323 324 324 322 322 321 320 320 319 318 318 317 314 313 311 307 304
271 233 221 257 244 227 261 269 282 300 329 0 352 334 332 336 340 338 328 323 325 328 325 322 321 323 322 320 317 313 313 317 320 321 321 319 319 321 322 322 324 326 328 331 336 340 341 339 337 337 337 337 337 336 338 339 336 333 334 335 332 327 329 338 337 331 326 326 326 326 326 324 323 323 322 323 324 322 319 319 317 314 313 312 309 304
273 272 126 281 282 270 252 267 289 318 339 339 333 331 335 341 342 336 329 326 325 324 324 322 321 321 322 319 316 314 315 318 320 322 322 320 321 323 323 323 326 330 333 337 340 340 339 338 338 337 336 336 337 338 341 340 337 334 334 333 330 330 337 340 333 327 327 329 328 327 326 324 323 324 325 327 327 323 320 318 316 312 310 310 309 305
319 348 357 284 302 314 305 297 316 332 331 327 326 329 337 342 340 336 331 326 323 322 322 321 320 320 320 319 318 317 316 318 321 322 324 325 323 322 324 326 329 333 337 341 341 340 340 340 339 337 335 336 338 341 340 338 336 336 334 331 332 339 342 337 330 328 332 332 329 328 327 325 324 325 327 328 328 326 324 322 318 314 311 311 311 308
289 306 302 290 297 301 301 312 329 329 322 324 331 334 340 341 337 334 331 325 322 322 323 324 325 323 321 320 320 319 319 322 325 326 326 326 325 325 327 329 332 336 340 342 342 342 342 339 336 336 337 338 339 339 338 336 337 336 333 332 341 346 341 334 331 332 333 331 329 328 327 325 326 327 327 327 327 327 325 324 322 319 315 313 311 307
287 312 308 309 308 297 301 323 336 330 324 333 340 337 338 338 332 330 329 327 327 326 326 328 329 327 326 327 326 326 326 327 329 330 328 325 325 328 330 332 336 341 344 344 342 341 338 335 337 340 341 339 337 336 335 336 337 335 334 340 348 346 338 332 332 334 333 331 329 329 328 327 328 329 327 326 326 327 325 323 322 317 315 318 321 322
324 328 324 327 324 314 316 332 340 331 322 328 334 333 335 335 332 330 331 331 332 333 332 331 331 331 332 333 334 333 330 329 331 332 328 327 330 332 334 337 340 343 346 345 340 336 337 340 344 343 340 336 335 335 336 336 335 335 340 349 349 343 337 333 334 334 333 331 330 330 330 329 329 329 329 327 327 327 326 327 327 322 319 326 335 345
324 321 330 330 313 306 316 327 332 324 311 316 325 329 332 334 334 333 334 336 337 337 337 335 333 333 335 337 338 336 332 332 335 333 330 331 334 335 337 339 340 343 345 342 337 337 343 347 345 341 337 334 335 336 337 335 334 338 348 350 346 341 337 336 335 333 331 331 331 331 331 330 328 329 330 329 328 327 326 327 331 337 341 342 345 351